UOSAT 2 (UO-11)

Last updated on Sun Apr 12 2026 00:03:15 GMT+0000 (Coordinated Universal Time)

1 14781U 84021B 26101.43309069 .00001182 00000+0 12631-3 0 9997 2 14781 97.8003 67.7855 0008855 52.2576 307.9444 14.90624926247187
UTC large
Height (km)
Speed (km/s)
/
Latitude / Longitude
Inclination (degrees)
Orbital Period (minutes)
Azimuth
Elevation
Range (km)
Doppler Factor

Next 0 passes for location: London (51.5072 / 0.1276)

Sorry there are no passes over London.
UOSAT 2 (UO-11)